Regional Weather Roundup
Issued by NWS Albany, NY

Home | Current Version | Previous Version | Graphics & Text | Print | Product List | Glossary Off
Versions: 1 2 3 4 5 6 7 8 9 10 11 12 13 14 15 16 17 18 19 20 21 22 23 24 25 26 27 28 29 30 31 32 33 34 35 36 37 38 39 40 41 42 43 44 45 46 47 48 49 50

000
ASUS41 KALY 271110
RWRALY

NEW YORK STATE HOURLY WEATHER ROUNDUP
NATIONAL WEATHER SERVICE ALBANY NY
700 AM EDT WED MAY 27 2015

NOTE: "FAIR" INDICATES FEW OR NO CLOUDS BELOW 12,000 FEET WITH NO
SIGNIFICANT WEATHER AND/OR NO OBSTRUCTIONS TO VISIBILITY.

NYZ032-033-038>043-046>054-057>066-NYZ062>081-271200-
EAST


CITY           SKY/WX    TMP DP  RH WIND       PRES   REMARKS
ALBANY         PTSUNNY   73  64  73 S8        30.09S
GLENS FALLS    SUNNY     71  63  75 SW9       30.08S
POUGHKEEPSIE   PTSUNNY   71  64  78 SE3       30.14R
NEWBURGH       MOSUNNY   70  66  88 VRB6      30.16R
MONTGOMERY     PTSUNNY   67  66  97 CALM      30.14S
WHITE PLAINS   MOSUNNY   65  62  90 SE3       30.17S
ISLIP          PTSUNNY   64  60  87 SW14G20   30.18S
NEW YORK CITY  PTSUNNY   69  61  75 S5        30.17R
CENTRAL PARK   MOSUNNY   72  64  76 VRB3      30.19S
$$

NYZ005>009-017-018-044>046-055-056-271200-
CENTRAL


CITY           SKY/WX    TMP DP  RH WIND       PRES   REMARKS
FULTON         MOSUNNY   74  64  71 S10       30.01R
SYRACUSE       PTSUNNY   75  65  70 S10       30.02R
ROME           PTSUNNY   72  65  78 SE5       30.05S
ELMIRA         MOSUNNY   68  65  90 CALM      30.06S
BINGHAMTON     MOSUNNY   69  65  86 SW9       30.11R
MONTICELLO     PTSUNNY   64  64 100 S8        30.18R
$$

NYZ026>034-041>043-271200-
NORTH


CITY           SKY/WX    TMP DP  RH WIND       PRES   REMARKS
WATERTOWN      PTSUNNY   75  65  70 S12G20    29.98R
FORT DRUM      NOT AVBL
MASSENA        MOSUNNY   72  66  81 S3        29.97S
SARANAC LAKE   MOSUNNY   69  63  81 SW12      30.05S
PLATTSBURGH    MOSUNNY   70  67  90 SE5       30.00F
$$

NYZ001>004-010>016-019>021-271200-
WEST


CITY           SKY/WX    TMP DP  RH WIND       PRES   REMARKS
NIAGARA FALLS  PTSUNNY   70  62  76 SW17G24   29.98R
BUFFALO        PTSUNNY   68  62  81 SW6       30.00R
DUNKIRK        CLOUDY    70  63  78 S10       30.02R
JAMESTOWN      CLOUDY    64  61  88 SW8       30.09R
WELLSVILLE     CLOUDY    67  60  78 SW10G20   30.12R
ROCHESTER      PTSUNNY   72  64  76 SW10      30.00R
PENN YAN       PTSUNNY   70  63  78 SW8       30.05R
$$

             KEY
       WCI = WIND CHILL INDEX
       VSB = VISIBILITY
       HX  = HEAT INDEX
$$



USA.gov is the U.S. government's official web portal to all federal, state and local government web resources and services.